When you browse on this site, cookies collect data to enhance your experience and personalize the content and advertising you see.
Visit our Privacy Policy to learn more. By continuing to use the site, you agree to this use of cookies and data.

Stündliche Wetter Ust-Typyl

Heute, 15 August, Samstag

Zeit Temperatur Niederschläge Wind Luftdruck Luftfeuchtigkeit
00:00 +8°C° 0 mm 1 m/S 727 mmHg 88%
01:00 +8°C° 0 mm 1 m/S 727 mmHg 89%
02:00 +8°C° 0 mm 1 m/S 727 mmHg 88%
03:00 +7°C° 0 mm 2 m/S 727 mmHg 87%
04:00 +7°C° 0 mm 2 m/S 727 mmHg 85%
05:00 +8°C° 0 mm 2 m/S 728 mmHg 80%
06:00 +9°C° 0 mm 2 m/S 728 mmHg 75%
07:00 +10°C° 0 mm 3 m/S 728 mmHg 70%
08:00 +11°C° 0 mm 3 m/S 728 mmHg 66%
09:00 +12°C° 0 mm 3 m/S 727 mmHg 63%
10:00 +13°C° 0 mm 4 m/S 727 mmHg 57%
11:00 +14°C° 0 mm 4 m/S 727 mmHg 56%
12:00 +14°C° 0 mm 4 m/S 727 mmHg 54%
13:00 +15°C° 0 mm 4 m/S 727 mmHg 52%
14:00 +15°C° 0 mm 4 m/S 727 mmHg 53%
15:00 +15°C° 0 mm 4 m/S 727 mmHg 54%
16:00 +14°C° 0 mm 5 m/S 728 mmHg 57%
17:00 +13°C° 0.1 mm 4 m/S 727 mmHg 63%
18:00 +12°C° 0.1 mm 3 m/S 727 mmHg 69%
19:00 +12°C° 0.1 mm 2 m/S 727 mmHg 76%
20:00 +10°C° 0 mm 2 m/S 727 mmHg 80%
21:00 +10°C° 0 mm 2 m/S 727 mmHg 85%
22:00 +9°C° 0 mm 2 m/S 727 mmHg 89%
23:00 +8°C° 0 mm 2 m/S 726 mmHg 91%

Morgen, 16 August, Sonntag

Zeit Temperatur Niederschläge Wind Luftdruck Luftfeuchtigkeit
00:00 +8°C° 0 mm 2 m/S 726 mmHg 93%
01:00 +7°C° 0 mm 2 m/S 726 mmHg 95%
02:00 +7°C° 0 mm 2 m/S 726 mmHg 95%
03:00 +7°C° 0 mm 2 m/S 726 mmHg 95%
04:00 +6°C° 0 mm 2 m/S 726 mmHg 96%
05:00 +7°C° 0 mm 3 m/S 725 mmHg 90%
06:00 +8°C° 0 mm 3 m/S 725 mmHg 85%
07:00 +10°C° 0 mm 4 m/S 725 mmHg 80%
08:00 +11°C° 0 mm 4 m/S 725 mmHg 75%
09:00 +12°C° 0 mm 4 m/S 724 mmHg 70%
10:00 +13°C° 0 mm 4 m/S 724 mmHg 66%
11:00 +13°C° 0 mm 4 m/S 724 mmHg 65%
12:00 +13°C° 0 mm 4 m/S 724 mmHg 64%
13:00 +13°C° 0 mm 3 m/S 724 mmHg 64%
14:00 +13°C° 0.1 mm 3 m/S 723 mmHg 66%
15:00 +13°C° 0.1 mm 3 m/S 723 mmHg 69%
16:00 +13°C° 0.1 mm 2 m/S 723 mmHg 72%
17:00 +13°C° 0 mm 2 m/S 723 mmHg 74%
18:00 +12°C° 0 mm 2 m/S 722 mmHg 76%
19:00 +12°C° 0 mm 2 m/S 722 mmHg 79%
20:00 +10°C° 0 mm 2 m/S 721 mmHg 82%
21:00 +11°C° 0 mm 1 m/S 721 mmHg 86%
22:00 +10°C° 0 mm 1 m/S 721 mmHg 89%
23:00 +10°C° 0 mm 1 m/S 720 mmHg 90%

übermorgen, 17 August, Montag

Zeit Temperatur Niederschläge Wind Luftdruck Luftfeuchtigkeit
00:00 +10°C° 0 mm 1 m/S 720 mmHg 91%
01:00 +10°C° 0 mm 1 m/S 720 mmHg 91%
02:00 +10°C° 0.1 mm 1 m/S 719 mmHg 92%
03:00 +9°C° 0.1 mm 2 m/S 719 mmHg 92%
04:00 +9°C° 0.1 mm 2 m/S 719 mmHg 93%
05:00 +9°C° 0 mm 2 m/S 718 mmHg 92%
06:00 +9°C° 0 mm 2 m/S 718 mmHg 91%
07:00 +9°C° 0 mm 2 m/S 718 mmHg 91%
08:00 +10°C° 0.5 mm 2 m/S 717 mmHg 92%
09:00 +10°C° 0.5 mm 2 m/S 717 mmHg 93%
10:00 +10°C° 0.5 mm 2 m/S 717 mmHg 94%
11:00 +10°C° 1 mm 2 m/S 717 mmHg 95%
12:00 +10°C° 1 mm 2 m/S 716 mmHg 96%
13:00 +10°C° 1 mm 2 m/S 716 mmHg 97%
14:00 +10°C° 0.9 mm 2 m/S 716 mmHg 98%
15:00 +10°C° 0.9 mm 2 m/S 716 mmHg 98%
16:00 +10°C° 0.9 mm 2 m/S 716 mmHg 98%
17:00 +12°C° 0.1 mm 2 m/S 716 mmHg 98%
18:00 +12°C° 0.1 mm 2 m/S 716 mmHg 98%
19:00 +12°C° 0.1 mm 2 m/S 715 mmHg 98%
20:00 +12°C° 0.6 mm 2 m/S 715 mmHg 98%
21:00 +12°C° 0.6 mm 2 m/S 715 mmHg 98%
22:00 +12°C° 0.6 mm 2 m/S 715 mmHg 99%
23:00 +12°C° 0.7 mm 2 m/S 715 mmHg 99%

18 August, Dienstag

Zeit Temperatur Niederschläge Wind Luftdruck Luftfeuchtigkeit
00:00 +12°C° 0.7 mm 2 m/S 714 mmHg 99%
01:00 +12°C° 0.7 mm 2 m/S 714 mmHg 98%
02:00 +12°C° 1.2 mm 2 m/S 714 mmHg 99%
03:00 +12°C° 1.2 mm 2 m/S 714 mmHg 99%
04:00 +12°C° 1.2 mm 2 m/S 714 mmHg 99%
05:00 +12°C° 1.1 mm 2 m/S 714 mmHg 99%
06:00 +12°C° 1.1 mm 2 m/S 714 mmHg 98%
07:00 +12°C° 1.1 mm 2 m/S 714 mmHg 98%
08:00 +12°C° 0.5 mm 2 m/S 714 mmHg 98%
09:00 +13°C° 0.5 mm 2 m/S 714 mmHg 98%
10:00 +13°C° 0.5 mm 2 m/S 714 mmHg 97%
11:00 +14°C° 0.2 mm 2 m/S 715 mmHg 94%
12:00 +14°C° 0.2 mm 2 m/S 715 mmHg 91%
13:00 +15°C° 0.2 mm 2 m/S 715 mmHg 88%
14:00 +15°C° 0.3 mm 2 m/S 715 mmHg 89%
15:00 +15°C° 0.3 mm 2 m/S 715 mmHg 89%
16:00 +15°C° 0.3 mm 2 m/S 716 mmHg 90%
17:00 +14°C° 0.2 mm 2 m/S 716 mmHg 92%
18:00 +13°C° 0.2 mm 2 m/S 716 mmHg 94%
19:00 +13°C° 0.2 mm 2 m/S 716 mmHg 97%
20:00 +12°C° 0.1 mm 2 m/S 716 mmHg 97%
21:00 +12°C° 0.1 mm 2 m/S 716 mmHg 98%
22:00 +12°C° 0.1 mm 2 m/S 716 mmHg 98%
23:00 +10°C° 0.1 mm 2 m/S 716 mmHg 98%

19 August, Mittwoch

Zeit Temperatur Niederschläge Wind Luftdruck Luftfeuchtigkeit
00:00 +10°C° 0.1 mm 2 m/S 716 mmHg 98%
01:00 +10°C° 0.1 mm 3 m/S 716 mmHg 98%
02:00 +10°C° 0.2 mm 3 m/S 717 mmHg 98%
03:00 +10°C° 0.2 mm 3 m/S 717 mmHg 98%
04:00 +10°C° 0.2 mm 3 m/S 717 mmHg 98%
05:00 +10°C° 0.7 mm 3 m/S 717 mmHg 98%
06:00 +10°C° 0.7 mm 3 m/S 717 mmHg 98%
07:00 +10°C° 0.7 mm 3 m/S 717 mmHg 98%
08:00 +10°C° 0.9 mm 3 m/S 717 mmHg 98%
09:00 +10°C° 0.9 mm 3 m/S 718 mmHg 97%
10:00 +10°C° 0.9 mm 4 m/S 718 mmHg 97%
11:00 +10°C° 0.3 mm 4 m/S 718 mmHg 97%
12:00 +10°C° 0.3 mm 4 m/S 719 mmHg 96%
13:00 +10°C° 0.3 mm 4 m/S 719 mmHg 96%
14:00 +10°C° 0.1 mm 4 m/S 720 mmHg 96%
15:00 +10°C° 0.1 mm 4 m/S 720 mmHg 95%
16:00 +10°C° 0.1 mm 4 m/S 720 mmHg 95%
17:00 +10°C° 0 mm 4 m/S 721 mmHg 95%
18:00 +10°C° 0 mm 4 m/S 721 mmHg 94%
19:00 +10°C° 0 mm 4 m/S 721 mmHg 94%
20:00 +10°C° 0.1 mm 4 m/S 721 mmHg 94%
21:00 +10°C° 0.1 mm 3 m/S 722 mmHg 94%
22:00 +9°C° 0.1 mm 3 m/S 722 mmHg 94%
23:00 +9°C° 0 mm 3 m/S 722 mmHg 95%

20 August, Donnerstag

Zeit Temperatur Niederschläge Wind Luftdruck Luftfeuchtigkeit
00:00 +9°C° 0 mm 3 m/S 722 mmHg 95%
01:00 +9°C° 0 mm 2 m/S 722 mmHg 96%
02:00 +9°C° 0.1 mm 2 m/S 722 mmHg 96%
03:00 +9°C° 0.1 mm 2 m/S 722 mmHg 96%
04:00 +9°C° 0.1 mm 2 m/S 723 mmHg 96%
05:00 +9°C° 0 mm 2 m/S 723 mmHg 94%
06:00 +9°C° 0 mm 2 m/S 723 mmHg 93%
07:00 +9°C° 0 mm 3 m/S 724 mmHg 91%
08:00 +11°C° 0 mm 3 m/S 724 mmHg 85%
09:00 +12°C° 0 mm 3 m/S 724 mmHg 79%
10:00 +13°C° 0 mm 3 m/S 724 mmHg 73%
11:00 +13°C° 0 mm 3 m/S 725 mmHg 73%
12:00 +13°C° 0 mm 3 m/S 725 mmHg 72%
13:00 +13°C° 0 mm 3 m/S 725 mmHg 71%
14:00 +13°C° 0 mm 3 m/S 725 mmHg 72%
15:00 +14°C° 0 mm 2 m/S 726 mmHg 72%
16:00 +14°C° 0 mm 2 m/S 726 mmHg 72%
17:00 +14°C° 0 mm 2 m/S 726 mmHg 73%
18:00 +14°C° 0 mm 2 m/S 726 mmHg 73%
19:00 +14°C° 0 mm 2 m/S 727 mmHg 74%
20:00 +12°C° 0 mm 2 m/S 727 mmHg 80%
21:00 +10°C° 0 mm 2 m/S 727 mmHg 86%
22:00 +10°C° 0 mm 1 m/S 727 mmHg 92%
23:00 +9°C° 0 mm 1 m/S 727 mmHg 93%
Mehr zeigen